This is the latest recevied weather packets stored in our database for station/object W1QED. If no packets are shown the sender has not sent any weather packets the latest 10 day(s).
| Time | Temp. | Humidity | Pressure | Rain* | Wind** | Luminosity | Snow |
|---|---|---|---|---|---|---|---|
| 1777400163 | 17.78° C | 31% | 1020.8 hPa | 0 mm | - | - | - |
| 1777399858 | 17.78° C | 34% | 1020.9 hPa | 0 mm | - | - | - |
| 1777399556 | 17.22° C | 35% | 1021 hPa | 0 mm | - | - | - |
| 1777399270 | 17.22° C | 33% | 1021.3 hPa | 0 mm | - | - | - |
| 1777398953 | 17.22° C | 33% | 1021.2 hPa | 0 mm | - | - | - |
| 1777398653 | 17.22° C | 32% | 1021.2 hPa | 0 mm | - | - | - |
| 1777398352 | 17.22° C | 31% | 1021.2 hPa | 0 mm | - | - | - |
| 1777398050 | 17.22° C | 33% | 1021.2 hPa | 0 mm | - | - | - |
| 1777397750 | 17.22° C | 33% | 1021.3 hPa | 0 mm | - | - | - |
| 1777397448 | 16.67° C | 34% | 1021.4 hPa | 0 mm | - | - | - |
| 1777397148 | 16.67° C | 32% | 1021.3 hPa | 0 mm | - | - | - |
| 1777396847 | 16.67° C | 34% | 1021.4 hPa | 0 mm | - | - | - |
| 1777396549 | 16.67° C | 34% | 1021.2 hPa | 0 mm | - | - | - |
| 1777396246 | 16.67° C | 33% | 1021.3 hPa | 0 mm | - | - | - |
| 1777395945 | 16.11° C | 35% | 1021.3 hPa | 0 mm | - | - | - |
| 1777395652 | 16.67° C | 34% | 1021.3 hPa | 0 mm | - | - | - |
| 1777395345 | 16.67° C | 35% | 1021.2 hPa | 0 mm | - | - | - |
| 1777395042 | 16.67° C | 33% | 1021.4 hPa | 0 mm | - | - | - |
| 1777394751 | 16.67° C | 35% | 1021.3 hPa | 0 mm | - | - | - |
| 1777394442 | 16.67° C | 35% | 1021.4 hPa | 0 mm | - | - | - |
| 1777394140 | 16.67° C | 35% | 1021.5 hPa | 0 mm | - | - | - |
| 1777393842 | 16.67° C | 34% | 1021.6 hPa | 0 mm | - | - | - |
| 1777393538 | 16.67° C | 34% | 1021.5 hPa | 0 mm | - | - | - |
| 1777393235 | 16.67° C | 35% | 1021.7 hPa | - | - | - | - |
| 1777392935 | 16.11° C | 35% | 1021.8 hPa | 0 mm | - | - | - |
* Rain latest hour (hover to see other rain measurements)
** Current wind speed in m/s (hover to see current wind gust speed)